[[{"header":{"parameterUnit":"m.s-1","parameterCategory":1,"la1":30.2991,"la2":30.254,"lo1":-89.0895,"lo2":-89.0444,"dy":0.0017,"dx":0.0017,"nx":28,"ny":28,"refTime":"2023-10-11T09:00:00:Z","depth":0,"parameterNumber":2,"parameterNumberName":"U-component_of_WINDS"},"data":[0,0,0,0,0,0,0,0,0,0,0,0,0,0,0,0,0,0,0,0,0,0,0,0,0,0,0,0,0,0,0,0,0,0,0,0,0,0,0,0,0,0,0,0,0,0,0,0,0,0,0,0,0,0,0,0,0,0,-7.8608,-7.8608,0,-7.8612,-7.8612,-7.8612,-7.8448,-7.8444,-7.8439,-7.8435,-7.8438,-7.8442,-7.8446,0,0,0,0,0,0,0,0,0,0,0,0,0,-7.8458,-7.8462,-7.8608,-7.8608,-7.8608,-7.8612,-7.8612,-7.8612,-7.8449,-7.8443,-7.8438,-7.8433,-7.8437,-7.8442,-7.8447,0,0,0,0,0,0,0,0,0,0,0,0,0,-7.8499,-7.8463,-7.8608,-7.8527,-7.852,-7.8612,-7.8612,-7.8612,-7.845,-7.8443,-7.8437,-7.8431,-7.8435,-7.8441,-7.8447,-7.8616,0,0,-7.8466,-7.8469,0,0,0,0,0,0,0,0,-7.8497,-7.8504,-7.8539,-7.8533,-7.8525,-7.8523,-7.856,-7.8613,-7.8452,-7.8477,-7.8435,-7.8428,-7.8472,-7.8474,-7.8489,-7.8616,-7.8616,-7.8467,-7.8471,-7.8473,-7.8475,0,0,0,0,0,0,0,-7.8494,-7.8503,-7.8609,-7.854,-7.8531,-7.849,-7.8489,-7.8569,-7.851,-7.8474,-7.8462,-7.8465,-7.8466,-7.8484,-7.8488,-7.8616,-7.8467,-7.8472,-7.8476,-7.8478,-7.888,-7.8886,0,0,0,0,0,0,-7.8502,-7.8502,-7.8609,-7.8609,-7.8494,-7.8498,-7.8497,-7.853,-7.8509,-7.85,-7.847,-7.8457,-7.8476,-7.8481,-7.8488,-7.8681,-7.8473,-7.8479,-7.8482,-7.8873,-7.8881,-7.8889,0,0,0,0,0,0,-7.85,-7.8513,-7.8609,-7.8552,-7.8561,-7.8508,-7.8547,-7.8533,-7.855,-7.8506,-7.8495,-7.8499,-7.8471,-7.8479,-7.8585,-7.8679,-7.8482,-7.8487,-7.8865,-7.8875,-7.8885,-7.9072,0,0,0,0,0,0,-7.8496,-7.8514,-7.8577,-7.8555,-7.8565,-7.8707,-7.8552,-7.8538,-7.8562,-7.8544,-7.853,-7.8521,-7.8467,-7.8576,-7.8591,-7.8684,-7.8492,-7.8856,-7.8869,-7.8882,-7.9057,-7.9088,-7.9114,0,0,0,0,0,-7.8491,-7.863,-7.8581,-7.8595,-7.8644,-7.8713,-7.8718,-7.8653,-7.857,-7.8633,-7.8605,-7.8522,-7.8668,-7.8589,-7.8604,-7.87,-7.8849,-7.8865,-7.8881,-7.9045,-7.9082,-7.9113,0,0,0,0,0,0,-7.8664,-7.8626,-7.8571,-7.8707,-7.8715,-7.8685,-7.8762,-7.8695,-7.8725,-7.8708,-7.8625,-7.8623,-7.8742,-7.8732,-7.8645,-7.8862,-7.8744,-7.8763,-7.8863,-7.8898,-7.8926,-7.8924,-7.8497,0,0,0,0,0,-7.8719,-7.8778,-7.8741,-7.8864,-7.8871,-7.8817,-7.8844,-7.8794,-7.8798,-7.88,-7.8779,-7.8786,-7.8833,-7.8865,-7.8906,-7.9056,-7.9049,-7.913,-7.9158,-7.9182,-7.9199,-7.9275,-7.931,-7.894,-7.894,-7.894,0,0,-7.883,-7.8817,-7.8859,-7.8899,-7.8898,-7.8961,-7.882,-7.8893,-7.8938,-7.8811,-7.8908,-7.8895,-7.8897,-7.9025,-7.908,-7.902,-7.93,-7.9202,-7.9221,-7.9225,-7.9295,-7.933,-7.9361,-7.8951,-7.8949,-7.8947,0,0,-7.9065,-7.9063,-7.9164,-7.9167,-7.9168,-7.9131,-7.9156,-7.9137,-7.9123,-7.922,-7.9125,-7.9178,-7.9261,-7.9266,-7.928,-7.9518,-7.9442,-7.9534,-7.968,-7.9756,-7.9785,-7.981,-7.9893,-7.9924,-7.9552,-7.9552,-7.9552,0,-7.9204,-7.9295,-7.9224,-7.9303,-7.9322,-7.9211,-7.9312,-7.9318,-7.9334,-7.9349,-7.9282,-7.9383,-7.9377,-7.9504,-7.9562,-7.9578,-7.9602,-7.9534,-7.9787,-7.9812,-7.9834,-7.9912,-7.9943,-7.9563,-7.9562,-7.9561,-7.956,0,-7.9464,-7.9529,-7.961,-7.9628,-7.9657,-7.9747,-7.9689,-7.9727,-7.9674,-7.9645,-7.9745,-7.9734,-7.977,-7.9797,-7.9746,-7.9917,-7.9879,-7.9802,-7.968,-7.9882,-7.9953,-7.9982,-7.9579,-7.9575,-7.9572,-7.9569,0,0,-7.9806,-7.9783,-7.9814,-7.982,-7.9814,-7.9862,-7.9947,-7.9983,-8.0016,-8.0031,-8.0098,-8.0172,-8.01,-8.0115,-8.0064,-8.0132,-8.0318,-8.0044,-8.0043,-8.0093,-8.0503,-8.0559,-8.0595,-8.0269,-8.0275,-8.0279,-8.0501,0,-8.0031,-8.0174,-8.0113,-8.0262,-8.0319,-8.0215,-8.0289,-8.0293,-8.0268,-8.0313,-8.0285,-8.0338,-8.024,-8.0248,-8.031,-8.0282,-8.0399,-8.0266,-8.0329,-8.0333,-8.0329,-8.0632,-8.0692,-8.0902,-8.0529,-8.0534,-8.0537,0,-8.0313,-8.0339,-8.0494,-8.0476,-8.0498,-8.0566,-8.0592,-8.0638,-8.064,-8.0617,-8.0636,-8.057,-8.0651,-8.0534,-8.0644,-8.0555,-8.0578,-8.0568,-8.0575,-8.0575,-8.0445,-8.0638,-8.0968,-8.0998,-8.0581,-8.0578,-8.0574,0,-8.0543,-8.0617,-8.0718,-8.0727,-8.0711,-8.076,-8.0755,-8.0751,-8.0776,-8.0801,-8.0816,-8.085,-8.0868,-8.0895,-8.084,-8.076,-8.0957,-8.0836,-8.0938,-8.094,-8.0981,-8.0979,-8.1316,-8.1003,-8.1002,-8.1002,-8.1001,0,-8.0799,-8.0897,-8.0821,-8.0883,-8.0989,-8.0919,-8.1026,-8.101,-8.1008,-8.1064,-8.0978,-8.1032,-8.0958,-8.1006,-8.0963,-8.1059,-8.1069,-8.1052,-8.1038,-8.1057,-8.1059,-8.1068,-8.1051,-8.101,-8.1008,-8.1007,-8.1005,0,-8.1072,-8.1026,-8.1129,-8.1105,-8.1101,-8.1181,-8.116,-8.1216,-8.1186,-8.1258,-8.1271,-8.1224,-8.1275,-8.1224,-8.1273,-8.1244,-8.1372,-8.134,-8.1371,-8.136,-8.1465,-8.1454,-8.1817,-8.186,-8.1523,-8.1526,-8.1529,0,-8.1237,-8.1309,-8.1294,-8.1325,-8.1326,-8.1379,-8.1403,-8.1338,-8.1367,-8.1376,-8.1431,-8.1475,-8.1507,-8.1594,-8.1563,-8.16,-8.1565,-8.169,-8.157,-8.1586,-8.1563,-8.1558,-8.1564,-8.1713,-8.1718,-8.1721,-8.1723,0,-8.1533,-8.1506,-8.1546,-8.1578,-8.161,-8.1633,-8.1648,-8.1679,-8.1611,-8.1649,-8.17,-8.1725,-8.1775,-8.1819,-8.1847,-8.1841,-8.1771,-8.1762,-8.1787,-8.1805,-8.1819,-8.181,-8.1434,-8.1753,-8.175,-8.1748,-8.1746,-8.1745,-8.1754,-8.1813,-8.1811,-8.1858,-8.1863,-8.1879,-8.193,-8.1906,-8.1948,-8.1983,-8.1943,-8.2006,-8.2006,-8.2036,-8.2039,-8.2087,-8.2033,-8.2071,-8.2079,-8.2089,-8.2103,-8.1815,-8.2092,-8.2091,-8.209,-8.2089,-8.2089,0,-8.2043,-8.2036,-8.2081,-8.2104,-8.2141,-8.2074,-8.2087,-8.2122,-8.2179,-8.2185,-8.2218,-8.2277,-8.232,-8.2294,-8.2331,-8.2374,-8.2343,-8.2385,-8.2379,-8.2379,-8.2149,-8.2122,-8.241,-8.241,-8.241,-8.241,-8.241,-8.241,-8.2197,-8.2292,-8.2266,-8.2363,-8.2356,-8.2416,-8.243,-8.2444,-8.2449,-8.2518,-8.2554,-8.2537,-8.253,-8.2565,-8.2601,-8.2592,-8.2608,-8.2662,-8.2642,-8.2427,-8.2395,-8.2365,-8.2339,-8.2667,-8.2668,-8.2867,-8.2868,-8.287]},{"header":{"parameterUnit":"m.s-1","parameterCategory":1,"la1":30.2991,"la2":30.254,"lo1":-89.0895,"lo2":-89.0444,"dy":0.0017,"dx":0.0017,"nx":28,"ny":28,"refTime":"2023-10-11T09:00:00:Z","depth":0,"parameterNumber":3,"parameterNumberName":"V-component_of_WINDS"},"data":[0,0,0,0,0,0,0,0,0,0,0,0,0,0,0,0,0,0,0,0,0,0,0,0,0,0,0,0,0,0,0,0,0,0,0,0,0,0,0,0,0,0,0,0,0,0,0,0,0,0,0,0,0,0,0,0,0,0,-4.6528,-4.653,0,-4.6774,-4.6777,-4.678,-4.6723,-4.6719,-4.6714,-4.6709,-4.6967,-4.6978,-4.6989,0,0,0,0,0,0,0,0,0,0,0,0,0,-4.601,-4.602,-4.6527,-4.6531,-4.6534,-4.6774,-4.6777,-4.6781,-4.6724,-4.6718,-4.6713,-4.6707,-4.6964,-4.6977,-4.699,0,0,0,0,0,0,0,0,0,0,0,0,0,-4.6244,-4.6023,-4.6527,-4.6534,-4.6537,-4.6773,-4.6777,-4.6782,-4.6725,-4.6718,-4.6711,-4.6705,-4.6959,-4.6976,-4.6992,-4.7238,0,0,-4.7044,-4.7051,0,0,0,0,0,0,0,0,-4.623,-4.6263,-4.653,-4.6534,-4.6538,-4.6711,-4.6689,-4.6935,-4.6727,-4.6654,-4.6709,-4.6701,-4.6888,-4.691,-4.6972,-4.725,-4.7261,-4.7045,-4.7056,-4.7063,-4.7068,0,0,0,0,0,0,0,-4.6214,-4.6252,-4.6625,-4.6534,-4.6539,-4.6526,-4.6551,-4.6736,-4.6808,-4.666,-4.6656,-4.6686,-4.6889,-4.6956,-4.6978,-4.7265,-4.7045,-4.706,-4.707,-4.7077,-4.7755,-4.7762,0,0,0,0,0,0,-4.6194,-4.6239,-4.6617,-4.6633,-4.6364,-4.6541,-4.6569,-4.6663,-4.6806,-4.6821,-4.6692,-4.6683,-4.6931,-4.6958,-4.6987,-4.7284,-4.7063,-4.7079,-4.7088,-4.7747,-4.7756,-4.7765,0,0,0,0,0,0,-4.6183,-4.6229,-4.6607,-4.6435,-4.6482,-4.6557,-4.6662,-4.6671,-4.6738,-4.683,-4.6843,-4.6747,-4.6926,-4.6963,-4.7175,-4.7292,-4.7086,-4.7101,-4.7738,-4.775,-4.7761,-4.7879,0,0,0,0,0,0,-4.6169,-4.6225,-4.6319,-4.6437,-4.6491,-4.6791,-4.667,-4.6681,-4.6767,-4.6757,-4.6885,-4.69,-4.6924,-4.715,-4.7192,-4.7311,-4.7115,-4.7728,-4.7743,-4.7757,-4.7865,-4.7893,-4.7918,0,0,0,0,0,-4.615,-4.6344,-4.6324,-4.637,-4.661,-4.6798,-4.6829,-4.6852,-4.6776,-4.6872,-4.693,-4.6895,-4.7271,-4.7172,-4.7219,-4.7345,-4.772,-4.7739,-4.7756,-4.7853,-4.7888,-4.7917,0,0,0,0,0,0,-4.6239,-4.6359,-4.6339,-4.6576,-4.6677,-4.6788,-4.6909,-4.6888,-4.7014,-4.7,-4.7023,-4.7052,-4.7269,-4.7328,-4.7215,-4.7589,-4.7485,-4.7513,-4.7544,-4.7577,-4.7603,-4.7585,-4.7129,0,0,0,0,0,-4.6286,-4.6427,-4.6525,-4.6725,-4.6776,-4.6834,-4.6917,-4.6925,-4.7031,-4.7075,-4.7148,-4.7254,-4.7396,-4.7489,-4.7625,-4.7872,-4.79,-4.7982,-4.8008,-4.8029,-4.8054,-4.8189,-4.8226,-4.7823,-4.7823,-4.7823,0,0,-4.6385,-4.6468,-4.6557,-4.6745,-4.6824,-4.6971,-4.6871,-4.7031,-4.7141,-4.7099,-4.7304,-4.7362,-4.7481,-4.7712,-4.7817,-4.7768,-4.817,-4.8051,-4.8068,-4.8081,-4.8211,-4.8249,-4.8283,-4.7835,-4.7833,-4.7831,0,0,-4.6641,-4.6717,-4.6892,-4.6972,-4.7093,-4.7129,-4.7171,-4.7285,-4.7321,-4.7526,-4.7498,-4.7629,-4.7873,-4.7959,-4.8035,-4.8319,-4.8293,-4.8363,-4.8502,-4.8633,-4.8665,-4.8693,-4.8796,-4.8832,-4.8387,-4.8387,-4.8387,0,-4.6749,-4.6969,-4.6985,-4.7147,-4.7231,-4.7197,-4.7374,-4.7452,-4.7612,-4.7671,-4.7612,-4.7916,-4.7994,-4.8244,-4.8313,-4.8376,-4.8425,-4.835,-4.8658,-4.8687,-4.8714,-4.8812,-4.8851,-4.8395,-4.8394,-4.8393,-4.8392,0,-4.7096,-4.7249,-4.7375,-4.7528,-4.7625,-4.7794,-4.7837,-4.7934,-4.7932,-4.7975,-4.8184,-4.8275,-4.8429,-4.8488,-4.8489,-4.8739,-4.8704,-4.8652,-4.8548,-4.876,-4.8853,-4.889,-4.8406,-4.8403,-4.8401,-4.8399,0,0,-4.7419,-4.7575,-4.7622,-4.769,-4.7818,-4.7937,-4.8104,-4.8252,-4.8335,-4.8445,-4.8587,-4.8792,-4.8743,-4.8829,-4.8839,-4.8954,-4.9175,-4.8888,-4.8891,-4.894,-4.9456,-4.9497,-4.954,-4.9156,-4.9163,-4.9169,-4.9447,0,-4.7687,-4.7981,-4.7998,-4.8265,-4.8406,-4.8374,-4.8519,-4.8614,-4.8658,-4.8785,-4.8833,-4.8979,-4.8903,-4.8955,-4.9067,-4.9124,-4.9279,-4.9104,-4.929,-4.9297,-4.9264,-4.9588,-4.9632,-4.989,-4.9483,-4.9489,-4.9494,0,-4.8041,-4.8159,-4.8439,-4.8546,-4.8606,-4.8736,-4.8872,-4.8993,-4.91,-4.9124,-4.9218,-4.9211,-4.9383,-4.9271,-4.9509,-4.9389,-4.9466,-4.9505,-4.9516,-4.9536,-4.941,-4.962,-4.9972,-5.0012,-4.9551,-4.9546,-4.9542,0,-4.825,-4.8479,-4.8676,-4.8735,-4.8864,-4.8957,-4.9015,-4.9115,-4.9202,-4.9321,-4.9378,-4.9516,-4.9592,-4.9699,-4.973,-4.9645,-4.9968,-4.9858,-4.9994,-4.9994,-5.0066,-5.0062,-5.0438,-5.0112,-5.0111,-5.011,-5.0109,0,-4.8549,-4.8722,-4.8771,-4.8893,-4.9085,-4.9103,-4.9293,-4.9346,-4.9434,-4.9566,-4.9546,-4.9671,-4.9702,-4.9833,-4.9858,-5.0052,-5.0086,-5.0111,-5.0116,-5.0115,-5.0112,-5.0168,-5.0151,-5.012,-5.0118,-5.0116,-5.0114,0,-4.8817,-4.8856,-4.9069,-4.9172,-4.9202,-4.934,-4.9429,-4.9546,-4.9585,-4.9752,-4.9792,-4.9855,-5.0008,-5.0047,-5.0231,-5.0247,-5.0476,-5.0463,-5.044,-5.044,-5.0575,-5.0563,-5.1003,-5.1062,-5.0694,-5.0697,-5.07,0,-4.9007,-4.9138,-4.9255,-4.9341,-4.9403,-4.9542,-4.9629,-4.9651,-4.9744,-4.9874,-4.9976,-5.0125,-5.0246,-5.0491,-5.0554,-5.0693,-5.0685,-5.0829,-5.0706,-5.07,-5.069,-5.0683,-5.0697,-5.0854,-5.0858,-5.0861,-5.0864,0,-4.934,-4.9352,-4.9478,-4.9612,-4.9717,-4.9824,-4.9926,-4.9997,-5.0034,-5.0139,-5.0293,-5.0386,-5.0571,-5.0721,-5.0861,-5.0922,-5.0901,-5.0901,-5.0941,-5.0942,-5.0924,-5.0937,-5.0506,-5.0892,-5.0889,-5.0887,-5.0886,-5.0885,-4.9576,-4.9691,-4.9791,-4.9932,-5.001,-5.0106,-5.022,-5.0273,-5.0401,-5.0552,-5.0557,-5.0725,-5.0827,-5.1013,-5.1082,-5.1215,-5.1171,-5.1228,-5.1243,-5.1257,-5.127,-5.0899,-5.124,-5.1239,-5.1238,-5.1238,-5.1237,0,-4.9909,-4.9971,-5.01,-5.0243,-5.0354,-5.0319,-5.043,-5.0526,-5.0674,-5.077,-5.0888,-5.1065,-5.1209,-5.1281,-5.1424,-5.1517,-5.151,-5.1554,-5.1549,-5.1564,-5.1299,-5.1252,-5.1556,-5.1556,-5.1556,-5.1556,-5.1556,-5.1556,-5.0096,-5.029,-5.0313,-5.0545,-5.0606,-5.0769,-5.0835,-5.0923,-5.0999,-5.1197,-5.1316,-5.1361,-5.1448,-5.1597,-5.1727,-5.1745,-5.18,-5.1849,-5.1862,-5.1614,-5.1582,-5.1551,-5.1507,-5.186,-5.186,-5.2115,-5.2118,-5.2119]}]]